User: anonymous   Login
Location: Unspecified
(0.0000°N, 0.0000°E)
Time: 11:02:26
(UTC+00:00)
Language:

OPTUS D2 - Orbit

View from above orbital plane
View from above orbital plane
View from above satellite
View from above satellite

Ground track
Ground track

The orbit data is extracted from the following two-line orbital elements,

1 32252U 07044A   16145.64926012 -.00000182  00000-0  00000+0 0  9997
2 32252   0.0222 338.5259 0002979  83.4623 206.4174  1.00272685 31582
Epoch (UTC): 24 May 2016 15:34:56
Eccentricity: 0.0002979
inclination: 0.0222°
perigee height: 35773 km
apogee height: 35798 km
right ascension of ascending node: 338.5259°
argument of perigee: 83.4623°
revolutions per day: 1.00272685
mean anomaly at epoch: 206.4174°
orbit number at epoch: 3158

The dashed part of the orbit path shows where the satellite is in the earth's shadow,  

DLR